Location: Rounton
(54.4000°N, 1.3500°W)
Time: 13:26:07
(UTC+00:00)

Transit 2A - Pass Details

Date: 01 December 2021
Orbit: 591 x 967 km, 66.7° (Epoch: 17 January)

Event Time Altitude Azimuth Distance (km) Brightness Sun altitude
Rises 03:47:02 0° 266° (W) 3,457 - -36.0°
Reaches altitude 10° 03:49:44 10° 276° (W) 2,573 - -35.6°
Maximum altitude 03:55:08 33° 340° (NNW) 1,537 - -34.8°
Exits shadow 03:57:02 28° 12° (NNE) 1,719 7.9 -34.5°
Drops below altitude 10° 04:00:50 10° 43° (NE) 2,709 9.4 -34.0°
Sets 04:03:44 0° 53° (NE) 3,665 10.3 -33.6°
